Other Surface Observations
Issued by NWS Tucson, AZ

Home | Current Version | Previous Version | Text Only | Print | Product List | Glossary On
Versions: 1 2 3 4 5 6 7 8 9 10 11 12 13 14 15 16 17 18 19 20 21 22 23 24 25 26 27 28 29 30 31 32 33 34 35 36 37 38 39 40 41 42 43 44 45 46 47 48 49 50
000
SXUS55 KTWC 220915
OSOTWC

WEATHER ROUNDUP FOR SOUTHEAST ARIZONA
NATIONAL WEATHER SERVICE TUCSON AZ
215 AM MST WED NOV 22 2017

AZZ504>506-514-221015-
LOCATION       SKY/WX    TMP DP  RH WIND       PRES   REMARKS
TUCSON         CLEAR     53  21  28 SE10      30.16S
DAVIS-MONTHAN  CLEAR     51  20  29 SE7       30.13F
CHILDRENS PARK N/A      N/A N/A  32 E3                PIMA CO DEQ
ALVERNON/22ND  N/A       56 N/A N/A SW1               PIMA CO DEQ
CHERRY/GLENN   N/A       54 N/A N/A SE1               PIMA CO DEQ
TANGERINE      N/A       58 N/A N/A E4                PIMA CO DEQ
CONTL RANCH    N/A       54  27  35 SE4               PIMA CO DEQ
GRANT/1ST      N/A       54  25  32 S2                PIMA CO DEQ
CRAYCROFT/22ND N/A       56  24  29 SE2               PIMA CO DEQ
GOLFLINKS/KOLB N/A       57  23  27 SE4               PIMA CO DEQ
AJO/12TH       N/A       50  23  35 SW2               PIMA CO DEQ
FAIRGROUNDS    N/A       57 N/A N/A E9                PIMA CO DEQ
SAGUARO        N/A       52  23  32 N3                *SABINO CYN
SAN CARLOS     N/A       63  21  20 CALM              *SAN CARLOS
GREEN VALLEY   N/A       52  22  30 SW4               PIMA CO DEQ
HORSE CAMP CYN N/A       59  22  24 NE9               *ARAVAIPA CYN
RINCON MTNS    N/A       51  16  25 E13G21            *NR MANNING CAMP
$$

AZZ509>511-221015-
LOCATION       SKY/WX    TMP DP  RH WIND       PRES   REMARKS
SAFFORD        CLEAR     56  15  20 SE9       30.26R
STRAY HORSE    N/A       49  19  30 CALM              *
TRAIL CABIN    N/A       51  21  30 E3G10             *N OF GRANVILLE
BLACK HILLS    NOT AVBL
DRY LAKE       N/A       51  21  31 E5G10             *NATANES MTNS
NOON CREEK     N/A       60  15  17 SW6G12            *PINALENO MTNS
COLUMBINE      N/A       37  16  41 CALM              *PINALENO MTNS
GUTHRIE        N/A       51  16  24 E10G19            *SW OF GUTHRIE
$$

AZZ502-503-513-221015-
LOCATION       SKY/WX    TMP DP  RH WIND       PRES   REMARKS
NOGALES        CLEAR     47  22  37 CALM      30.19S
SELLS          N/A       69  16  13 E8G12             *
SASABE         N/A       44  20  38 CALM              *ALTAR VLY
HOPKINS        N/A       57  15  19 E17G34            *SANTA RITA MTNS
CARR CYN       N/A       62  18  18 S3G10             *W OF HEREFORD
$$

AZZ507-508-512-221015-
LOCATION       SKY/WX    TMP DP  RH WIND       PRES   REMARKS
SIERRA VISTA   PTCLDY    53  16  23 CALM      30.26S
DOUGLAS        PTCLDY    42  15  33 CALM      30.24S
EMPIRE MTNS    NOT AVBL
MULESHOE RANCH N/A       66  19  16 E8G15             *PRESERVE
HEADQUARTERS   N/A       58  16  19 NE5G11            *CHIRICAHUA MTNS
$$

.............................NOTES.............................
THIS IS AN AUTOMATED COLLECTIVE WITH MINIMAL QUALITY CONTROL.
PIMA CO DEQ SITES HAVE NONSTANDARD WIND SENSOR HEIGHTS.
PIMA CO DEQ SITES DO NOT REPORT WIND GUSTS.
* INDICATES WIND SENSORS LOCATED AT 20 FEET INSTEAD OF 33 FEET.
..............................KEY..............................
SKY/WX - SKY CONDITION/WEATHER
TMP    - TEMPERATURE IN FAHRENHEIT
DP     - DEWPOINT IN FAHRENHEIT
RH     - RELATIVE HUMIDITY IN PERCENT
WIND   - DIRECTION AND SPEED IN MILES PER HOUR (MPH)
VRB    - VARIABLE WIND DIRECTION
PRES   - MEAN SEA LEVEL PRESSURE IN INCHES OF MERCURY
         F - FALLING PRESSURE   R - RISING PRESSURE
         S - STEADY PRESSURE
VSB    - VISIBILITY IN MILES
HX     - HEAT INDEX IN FAHRENHEIT
WCI    - WIND CHILL INDEX IN FAHRENHEIT
N/A    - NOT AVAILABLE
AFB    - AIR FORCE BASE
         DAVIS-MONTHAN IS DAVIS-MONTHAN AIR FORCE BASE
CYN    - CANYON
MTNS   - MOUNTAINS
NCA    - NATIONAL CONSERVATION AREA
NR     - NEAR
VLY    - VALLEY
CONTL  - CONTINENTAL
PIMA CO DEQ - PIMA COUNTY DEPT OF ENVIRONMENTAL QUALITY



USA.gov is the U.S. government's official web portal to all federal, state and local government web resources and services.